This is the latest recevied weather packets stored in our database for station/object N5KJT. If no packets are shown the sender has not sent any weather packets the latest 10 day(s).
| Time | Temp. | Humidity | Pressure | Rain* | Wind** | Luminosity | Snow |
|---|---|---|---|---|---|---|---|
| 1787764217 | 27.22° C | 43% | 1029.9 hPa | 0 mm | - | 1012 W/m² | - |
| 1787763917 | 26.67° C | 43% | 1030 hPa | 0 mm | - | 957 W/m² | - |
| 1787763617 | 26.67° C | 45% | 1030 hPa | 0 mm | - | 923 W/m² | - |
| 1787763316 | 26.67° C | 45% | 1030 hPa | 0 mm | - | 909 W/m² | - |
| 1787763017 | 26.11° C | 46% | 1030 hPa | 0 mm | - | 858 W/m² | - |
| 1787762717 | 26.11° C | 47% | 1029.9 hPa | 0 mm | - | 803 W/m² | - |
| 1787762417 | 25.56° C | 47% | 1029.9 hPa | 0 mm | - | 764 W/m² | - |
| 1787762116 | 25.56° C | 47% | 1029.9 hPa | 0 mm | - | 725 W/m² | - |
| 1787761817 | 25° C | 51% | 1029.8 hPa | 0 mm | - | 578 W/m² | - |
| 1787761516 | 25° C | 51% | 1029.8 hPa | 0 mm | - | 615 W/m² | - |
| 1787761217 | 25° C | 51% | 1029.9 hPa | 0 mm | - | 634 W/m² | - |
| 1787760917 | 24.44° C | 52% | 1030.1 hPa | 0 mm | - | 562 W/m² | - |
| 1787760617 | 24.44° C | 54% | 1030.1 hPa | 0 mm | - | 702 W/m² | - |
| 1787760316 | 23.89° C | 53% | 1030.1 hPa | 0 mm | - | 693 W/m² | - |
| 1787760016 | 23.89° C | 54% | 1029.9 hPa | 0 mm | - | 676 W/m² | - |
| 1787759716 | 23.89° C | 55% | 1030 hPa | 0 mm | - | 605 W/m² | - |
| 1787759417 | 23.33° C | 58% | 1030.1 hPa | 0 mm | - | 713 W/m² | - |
| 1787759116 | 23.33° C | 57% | 1029.9 hPa | 0 mm | - | 713 W/m² | - |
| 1787758817 | 22.78° C | 57% | 1029.8 hPa | 0 mm | - | 696 W/m² | - |
| 1787758517 | 22.78° C | 58% | 1029.9 hPa | 0 mm | - | 684 W/m² | - |
| 1787758216 | 22.78° C | 58% | 1029.9 hPa | 0 mm | - | 671 W/m² | - |
| 1787757916 | 22.78° C | 59% | 1030.1 hPa | 0 mm | - | 653 W/m² | - |
| 1787757617 | 22.22° C | 60% | 1030 hPa | 0 mm | - | 632 W/m² | - |
| 1787757316 | 22.22° C | 60% | 1030 hPa | 0 mm | - | 558 W/m² | - |
| 1787757016 | 21.67° C | 62% | 1030.2 hPa | 0 mm | - | 488 W/m² | - |
* Rain latest hour (hover to see other rain measurements)
** Current wind speed in m/s (hover to see current wind gust speed)